Weather in Karacharovo

Russia / Tver Oblast     56°40′55″N   36°42′00″E
temp.,
°C
wind,
m/s
gust,
m/s
humid.,
%
clouds,
%
prec.,
mm/h
press.,
hPa
HPBL,
m
8 march, mon
mon800:00−10wsw3109122 0.0 993297
03:00−8wsw4109461 0.1 994579
06:00−8wnw3794100 0.9 995636
09:00−8nnw489199 1.1 998485
12:00−7nnw4783100 0.1 1001627
15:00−7nw4680100 0.1 1004920
18:00−9nnw3887100 0.2 1007621
21:00−12nnw399598 0.2 1009353
9 march, tue
tue900:00−14nnw389670 0.0 1011287
03:00−16nnw269772 0.0 1014148
06:00−19nnw269713 0.0 1015147
09:00−18nnw369118 0.0 1017293
12:00−15nnw358275 0.0 1018524
15:00−13nnw357988 0.0 1019690
18:00−16n3690100 0.0 1020301
21:00−20n279679 0.0 1023219
10 march, wed
wed1000:00−22n26978 0.0 1025148
03:00−24n25974 0.0 1027132
06:00−25n24970 0.0 1028111
09:00−22n23890 0.0 1030217
12:00−16nnw23690 0.0 1030471
15:00−13nw24700 0.0 1030630
18:00−15wnw22840 0.0 102928
21:00−17wnw23900 0.0 103051
11 march, thu
thu1100:00−18wnw23941 0.0 103044
03:00−18wnw22960 0.0 103123
06:00−19wnw229768 0.0 103138
09:00−16wnw139260 0.0 1032157
12:00−9w237871 0.0 1031406
15:00−7wsw237579 0.0 1030677
18:00−11sw238960 0.0 102935
21:00−14ssw249030 0.0 102979
12 march, fri
fri1200:00−15s38910 0.0 1028184
03:00−16s310880 0.0 1027270
06:00−16s411760 0.0 1025321
09:00−13s512750 0.0 1022434
12:00−9sse6127791 0.0 1020603
15:00−6sse7137796 0.0 1016861
18:00−6s71490100 0.8 10131129
21:00−6s61492100 1.6 10121034